Regional Weather Roundup
Issued by NWS

Home | Current Version | Previous Version | Graphics & Text | Print | Product List | Glossary On
Versions: 1 2 3 4 5 6 7 8 9 10 11 12 13 14 15 16 17 18 19 20 21 22 23 24 25 26 27 28 29 30 31 32 33 34 35 36 37 38 39 40 41 42 43 44 45 46 47 48 49 50
000
ASUS43 KBIS 280602
RWRND

NORTH DAKOTA REGIONAL WEATHER ROUNDUP
NATIONAL WEATHER SERVICE BISMARCK ND
100 AM CDT SUN MAY 28 2017

NOTE: "FAIR" INDICATES FEW OR NO CLOUDS BELOW 12,000 FEET WITH NO
SIGNIFICANT WEATHER AND/OR OBSTRUCTIONS TO VISIBILITY.


NDZ001>003-009>011-017-280700-
NORTHWEST NORTH DAKOTA

CITY           SKY/WX    TMP DP  RH WIND       PRES   REMARKS
WILLISTON      FAIR      53  36  52 VRB5      29.93R
6HR MIN TEMP:  47; 6HR MAX TEMP:  76;

MINOT          FAIR      49  43  80 SW9       29.84S
MINOT AFB      CLOUDY    49  47  92 W9        29.83S
$$

NDZ018>021-031>035-040>046-280700-
SOUTHWEST NORTH DAKOTA

CITY           SKY/WX    TMP DP  RH WIND       PRES   REMARKS
BISMARCK       FAIR      49  43  80 CALM      29.86F
6HR MIN TEMP:  48; 6HR MAX TEMP:  66;

DICKINSON      FAIR      48  39  71 NW9       29.92R
GARRISON         N/A     44  39  82 N5        29.85R
6HR MIN TEMP:  43; 6HR MAX TEMP:  63;

HETTINGER ARPT PTCLDY    48  40  73 NW8       29.96R
$$

NDZ004>008-012>016-024-026-027-054-280700-
NORTHEAST NORTH DAKOTA

CITY           SKY/WX    TMP DP  RH WIND       PRES   REMARKS
GRAND FORKS    MOCLDY    53  49  86 NW10      29.73F
GRND FRKS AFB  CLOUDY    52  50  93 NW9       29.73F
DEVILS LAKE    FAIR      48  45  89 W8        29.80S
$$

NDZ022-023-025-028>030-036>039-047>053-280700-
SOUTHEAST NORTH DAKOTA

CITY           SKY/WX    TMP DP  RH WIND       PRES   REMARKS
FARGO          CLEAR     52  45  77 W9        29.77R
6HR MIN TEMP:  52; 6HR MAX TEMP:  76; 6HR PCP: TRACE;

JAMESTOWN      FAIR      49  45  86 W9        29.81S
$$





USA.gov is the U.S. government's official web portal to all federal, state and local government web resources and services.